• en Suisse
  • Liste des pays
  • À 7 jours
  • Température de l'eau
  • Carte satellitaire
  • Carte météo
  • Widgets météo
  • user-avatar
    Se connecter

    Météo par heure à Mbandaka

    Ce jour, 17 Décembre, Dimanche

    Heure Température Précipitation Vent Pression Humidité
    00:00 +25°C° 0,1 mm 0 m/s 730 mmHg 73%
    01:00 +25°C° 0 mm 0 m/s 730 mmHg 77%
    02:00 +24°C° 0 mm 0 m/s 730 mmHg 79%
    03:00 +24°C° 0 mm 0 m/s 730 mmHg 80%
    04:00 +26°C° 0 mm 1 m/s 729 mmHg 81%
    05:00 +26°C° 0 mm 1 m/s 730 mmHg 79%
    06:00 +27°C° 0 mm 1 m/s 730 mmHg 78%
    07:00 +28°C° 0 mm 1 m/s 731 mmHg 74%
    08:00 +30°C° 0 mm 1 m/s 731 mmHg 66%
    09:00 +33°C° 0 mm 1 m/s 731 mmHg 57%
    10:00 +35°C° 0 mm 1 m/s 731 mmHg 49%
    11:00 +35°C° 0,1 mm 1 m/s 730 mmHg 47%
    12:00 +36°C° 0,1 mm 1 m/s 729 mmHg 45%
    13:00 +34°C° 0,1 mm 0 m/s 729 mmHg 43%
    14:00 +33°C° 0 mm 0 m/s 728 mmHg 46%
    15:00 +32°C° 0 mm 0 m/s 728 mmHg 49%
    16:00 +33°C° 0 mm 1 m/s 728 mmHg 52%
    17:00 +32°C° 0,1 mm 1 m/s 728 mmHg 58%
    18:00 +30°C° 0,1 mm 1 m/s 728 mmHg 64%
    19:00 +29°C° 0,1 mm 1 m/s 728 mmHg 70%
    20:00 +28°C° 0,2 mm 1 m/s 729 mmHg 74%
    21:00 +28°C° 0,2 mm 1 m/s 729 mmHg 78%
    22:00 +27°C° 0,2 mm 1 m/s 730 mmHg 82%
    23:00 +27°C° 0,1 mm 1 m/s 730 mmHg 83%

    Demain, 18 Décembre, Lundi

    Heure Température Précipitation Vent Pression Humidité
    00:00 +26°C° 0,1 mm 1 m/s 730 mmHg 84%
    01:00 +26°C° 0,1 mm 1 m/s 730 mmHg 86%
    02:00 +26°C° 0 mm 1 m/s 730 mmHg 87%
    03:00 +25°C° 0 mm 1 m/s 730 mmHg 88%
    04:00 +25°C° 0 mm 1 m/s 730 mmHg 90%
    05:00 +25°C° 0 mm 1 m/s 730 mmHg 88%
    06:00 +26°C° 0 mm 1 m/s 731 mmHg 86%
    07:00 +27°C° 0 mm 2 m/s 731 mmHg 83%
    08:00 +29°C° 0 mm 2 m/s 731 mmHg 74%
    09:00 +31°C° 0 mm 2 m/s 731 mmHg 64%
    10:00 +34°C° 0 mm 2 m/s 731 mmHg 54%
    11:00 +35°C° 0 mm 2 m/s 731 mmHg 49%
    12:00 +37°C° 0 mm 2 m/s 730 mmHg 43%
    13:00 +38°C° 0 mm 2 m/s 729 mmHg 37%
    14:00 +36°C° 0 mm 1 m/s 728 mmHg 41%
    15:00 +34°C° 0 mm 1 m/s 728 mmHg 45%
    16:00 +33°C° 0 mm 1 m/s 727 mmHg 50%
    17:00 +31°C° 0,4 mm 1 m/s 727 mmHg 58%
    18:00 +30°C° 0,4 mm 1 m/s 728 mmHg 66%
    19:00 +28°C° 0,4 mm 1 m/s 728 mmHg 74%
    20:00 +27°C° 0,5 mm 1 m/s 729 mmHg 78%
    21:00 +27°C° 0,5 mm 1 m/s 729 mmHg 82%
    22:00 +24°C° 0,5 mm 0 m/s 730 mmHg 85%
    23:00 +26°C° 0,1 mm 1 m/s 730 mmHg 86%

    Après-demain, 19 Décembre, Mardi

    Heure Température Précipitation Vent Pression Humidité
    00:00 +26°C° 0,1 mm 1 m/s 729 mmHg 87%
    01:00 +25°C° 0,1 mm 2 m/s 729 mmHg 88%
    02:00 +25°C° 0 mm 1 m/s 729 mmHg 89%
    03:00 +25°C° 0 mm 1 m/s 729 mmHg 89%
    04:00 +25°C° 0 mm 1 m/s 729 mmHg 90%
    05:00 +25°C° 0 mm 1 m/s 730 mmHg 88%
    06:00 +26°C° 0 mm 1 m/s 730 mmHg 85%
    07:00 +26°C° 0 mm 2 m/s 731 mmHg 83%
    08:00 +28°C° 0 mm 2 m/s 731 mmHg 74%
    09:00 +30°C° 0 mm 2 m/s 731 mmHg 64%
    10:00 +32°C° 0 mm 2 m/s 732 mmHg 55%
    11:00 +35°C° 0 mm 2 m/s 731 mmHg 51%
    12:00 +36°C° 0 mm 2 m/s 730 mmHg 48%
    13:00 +37°C° 0 mm 2 m/s 729 mmHg 44%
    14:00 +36°C° 0,2 mm 2 m/s 728 mmHg 49%
    15:00 +33°C° 0,2 mm 1 m/s 728 mmHg 54%
    16:00 +32°C° 0,2 mm 1 m/s 728 mmHg 58%
    17:00 +31°C° 0,1 mm 1 m/s 728 mmHg 64%
    18:00 +29°C° 0,1 mm 1 m/s 729 mmHg 70%
    19:00 +28°C° 0,1 mm 2 m/s 729 mmHg 76%
    20:00 +27°C° 0 mm 1 m/s 729 mmHg 78%
    21:00 +27°C° 0 mm 1 m/s 730 mmHg 80%
    22:00 +26°C° 0 mm 1 m/s 730 mmHg 82%
    23:00 +26°C° 0 mm 1 m/s 730 mmHg 83%

    20 Décembre, Mercredi

    Heure Température Précipitation Vent Pression Humidité
    00:00 +26°C° 0 mm 1 m/s 730 mmHg 83%
    01:00 +25°C° 0 mm 1 m/s 729 mmHg 84%
    02:00 +25°C° 0,2 mm 1 m/s 729 mmHg 85%
    03:00 +25°C° 0,2 mm 1 m/s 729 mmHg 86%
    04:00 +25°C° 0,2 mm 1 m/s 729 mmHg 87%
    05:00 +25°C° 0,1 mm 1 m/s 730 mmHg 86%
    06:00 +25°C° 0,1 mm 1 m/s 730 mmHg 85%
    07:00 +26°C° 0,1 mm 1 m/s 731 mmHg 84%
    08:00 +28°C° 0 mm 1 m/s 731 mmHg 74%
    09:00 +30°C° 0 mm 1 m/s 731 mmHg 64%
    10:00 +32°C° 0 mm 1 m/s 731 mmHg 54%
    11:00 +34°C° 0 mm 1 m/s 731 mmHg 50%
    12:00 +35°C° 0 mm 1 m/s 730 mmHg 45%
    13:00 +36°C° 0 mm 1 m/s 729 mmHg 41%
    14:00 +35°C° 0 mm 1 m/s 729 mmHg 45%
    15:00 +34°C° 0 mm 1 m/s 728 mmHg 49%
    16:00 +33°C° 0 mm 1 m/s 728 mmHg 53%
    17:00 +31°C° 0,2 mm 1 m/s 728 mmHg 60%
    18:00 +29°C° 0,2 mm 1 m/s 729 mmHg 67%
    19:00 +28°C° 0,2 mm 1 m/s 729 mmHg 75%
    20:00 +27°C° 1,2 mm 1 m/s 730 mmHg 78%
    21:00 +26°C° 1,2 mm 1 m/s 730 mmHg 82%
    22:00 +26°C° 1,2 mm 1 m/s 731 mmHg 86%
    23:00 +26°C° 0,7 mm 1 m/s 731 mmHg 88%

    21 Décembre, Jeudi

    Heure Température Précipitation Vent Pression Humidité
    00:00 +23°C° 0,7 mm 0 m/s 730 mmHg 90%
    01:00 +23°C° 0,7 mm 0 m/s 730 mmHg 92%
    02:00 +25°C° 0,6 mm 1 m/s 730 mmHg 92%
    03:00 +25°C° 0,6 mm 1 m/s 730 mmHg 93%
    04:00 +25°C° 0,6 mm 1 m/s 730 mmHg 93%
    05:00 +25°C° 0,4 mm 1 m/s 731 mmHg 93%
    06:00 +25°C° 0,4 mm 1 m/s 732 mmHg 92%
    07:00 +25°C° 0,4 mm 1 m/s 732 mmHg 92%
    08:00 +27°C° 0,1 mm 1 m/s 732 mmHg 86%
    09:00 +28°C° 0,1 mm 1 m/s 732 mmHg 80%
    10:00 +29°C° 0,1 mm 2 m/s 732 mmHg 75%
    11:00 +30°C° 0 mm 2 m/s 731 mmHg 67%
    12:00 +32°C° 0 mm 2 m/s 730 mmHg 60%
    13:00 +34°C° 0 mm 2 m/s 729 mmHg 52%
    14:00 +34°C° 0 mm 2 m/s 729 mmHg 53%
    15:00 +33°C° 0 mm 1 m/s 729 mmHg 53%
    16:00 +32°C° 0 mm 1 m/s 728 mmHg 53%
    17:00 +31°C° 0,1 mm 1 m/s 729 mmHg 61%
    18:00 +29°C° 0,1 mm 1 m/s 729 mmHg 68%
    19:00 +27°C° 0,1 mm 1 m/s 730 mmHg 75%
    20:00 +27°C° 0 mm 1 m/s 730 mmHg 77%
    21:00 +26°C° 0 mm 1 m/s 730 mmHg 79%
    22:00 +26°C° 0 mm 1 m/s 731 mmHg 81%
    23:00 +25°C° 0 mm 1 m/s 731 mmHg 82%

    22 Décembre, Vendredi

    Heure Température Précipitation Vent Pression Humidité
    00:00 +25°C° 0 mm 1 m/s 731 mmHg 84%
    01:00 +25°C° 0 mm 1 m/s 731 mmHg 85%
    02:00 +22°C° 0,3 mm 0 m/s 731 mmHg 87%
    03:00 +22°C° 0,3 mm 0 m/s 731 mmHg 90%
    04:00 +22°C° 0,3 mm 0 m/s 731 mmHg 92%
    05:00 +24°C° 0,4 mm 1 m/s 731 mmHg 92%
    06:00 +25°C° 0,4 mm 1 m/s 732 mmHg 92%
    07:00 +25°C° 0,4 mm 1 m/s 732 mmHg 92%
    08:00 +27°C° 0 mm 1 m/s 732 mmHg 81%
    09:00 +29°C° 0 mm 2 m/s 732 mmHg 71%
    10:00 +32°C° 0 mm 2 m/s 732 mmHg 60%
    11:00 +32°C° 0,8 mm 2 m/s 731 mmHg 63%
    12:00 +32°C° 0,8 mm 2 m/s 730 mmHg 66%
    13:00 +31°C° 0,8 mm 2 m/s 730 mmHg 69%
    14:00 +31°C° 0,9 mm 1 m/s 729 mmHg 69%
    15:00 +31°C° 0,9 mm 1 m/s 729 mmHg 70%
    16:00 +31°C° 0,9 mm 1 m/s 728 mmHg 71%
    17:00 +29°C° 0,3 mm 1 m/s 729 mmHg 76%
    18:00 +26°C° 0,3 mm 0 m/s 729 mmHg 82%
    19:00 +24°C° 0,3 mm 0 m/s 729 mmHg 88%
    20:00 +24°C° 0,3 mm 0 m/s 730 mmHg 90%
    21:00 +23°C° 0,3 mm 0 m/s 730 mmHg 92%
    22:00 +23°C° 0,3 mm 0 m/s 730 mmHg 93%
    23:00 +23°C° 0,1 mm 0 m/s 730 mmHg 94%
    Voir plus

    XHprof extension not loaded